Location: Cumbre Roja
(10.2766°N, 67.0675°W)
Time: 01:52:32
(UTC+00:00)

Resurs 1-3 - Pass Details

Date: 18 November 2025
Orbit: 613 x 615 km, 97.7° (Epoch: 08 December)

Event Time Altitude Azimuth Distance (km) Brightness Sun altitude
Rises 23:13:12 0° 164° (SSE) 2,874 7.0 -17.3°
Reaches altitude 10° 23:15:24 10° 162° (SSE) 1,969 6.1 -17.9°
Maximum altitude 23:19:39 71° 79° (ENE) 650 3.4 -18.9°
Drops below altitude 10° 23:23:55 10° 355° (N) 1,967 6.0 -19.9°
Sets 23:26:06 0° 353° (N) 2,870 6.9 -20.4°
